Weather observations for the past three days for
Southwest Washington Regional Airport
Imperial (Metric)
Date Time (pdt) Wind (mph) Vis. (mi.) Weather Sky Cond. Temperature (ºF) Relative Humidity Wind Chill (°F) Heat Index (°F) Pressure Precipitation (in)
Air Dwpt 6 hour altimeter (in) sea level (mb) 1 hr 3 hr 6 hr
Max. Min.
25 11:56 NW 6 10.00 Overcast SCT035 OVC055 66.9 51.1 57% 30.28 1025.7
25 10:56 NW 6 10.00 Overcast FEW024 OVC055 68 53.1 68 51.1 59% 30.28 1025.7
25 09:56 W 6 10.00 Overcast FEW022 SCT043 OVC049 64 53.1 68% 30.27 1025.4
25 08:56 S 3 10.00 Mostly Cloudy BKN055 63 53.1 70% 30.27 1025.3
25 07:56 S 3 10.00 Overcast OVC036 57.9 51.1 78% 30.27 1025.3
25 06:56 Calm 10.00 Mostly Cloudy BKN030 BKN035 53.1 50 89% 30.25 1024.7
25 05:56 Calm 10.00 Fair CLR 52 48.9 89% 30.24 1024.3
25 04:56 SE 3 10.00 Fair CLR 52 48.9 59 51.1 89% 30.23 1024.0
25 03:56 Calm 10.00 Partly Cloudy SCT022 52 48.9 89% 30.22 1023.7
25 02:56 Calm 10.00 Fair CLR 53.1 48.9 86% 30.2 1023.2
25 01:56 Calm 10.00 Fair CLR 55 50 83% 30.19 1022.8
25 00:56 Calm 10.00 Fair CLR 57 50 78% 30.2 1022.9
24 23:56 NW 3 10.00 Fair CLR 57.9 50 75% 30.19 1022.7
24 22:56 W 9 10.00 Fair CLR 59 51.1 75 59 75% 30.18 1022.2
24 21:56 W 14 G 17 10.00 Fair CLR 62.1 52 70% 30.16 1021.6
24 20:56 NW 12 G 17 10.00 Overcast OVC050 64 51.1 63% 30.13 1020.7
24 19:56 W 13 G 21 10.00 Fair CLR 66.9 51.1 57% 30.11 1019.9
24 18:56 W 13 G 20 10.00 Fair CLR 69.1 52 55% 30.11 1019.9
24 17:56 W 13 G 18 10.00 A Few Clouds FEW065 72 55.9 57% 30.11 1020.0
24 16:56 NW 18 G 24 10.00 Mostly Cloudy BKN047 75 55.9 78.1 69.1 52% 78 30.11 1020.1
24 15:56 W 13 G 18 10.00 A Few Clouds FEW042 75.9 55.9 50% 78 30.11 1019.9
24 14:56 W 14 G 17 10.00 Partly Cloudy SCT044 75.9 55 48% 78 30.11 1020.0
24 13:56 NW 12 10.00 Mostly Cloudy BKN042 73.9 55.9 54% 30.12 1020.3
24 12:56 W 5 10.00 Fair CLR 75 52 45% 78 30.12 1020.3
24 11:56 Vrbl 5 10.00 Fair CLR 71.1 50 47% 30.12 1020.4
24 10:56 W 6 10.00 Fair CLR 69.1 50 69.1 51.1 51% 30.13 1020.6
24 09:56 SW 7 10.00 Fair CLR 64.9 48.9 56% 30.13 1020.6
24 08:56 NW 5 10.00 Fair CLR 62.1 48 60% 30.14 1020.9
24 07:56 Vrbl 3 10.00 Fair CLR 57.9 50 75% 30.14 1021.1
24 06:56 NW 3 10.00 Fair CLR 54 50 87% 30.14 1021.0
24 05:56 NW 3 10.00 Fair CLR 51.1 48.9 92% 30.13 1020.7
24 04:56 Calm 10.00 Fair CLR 53.1 50 62.1 53.1 89% 30.13 1020.7
24 03:56 NE 3 10.00 Fair CLR 55.9 51.1 84% 30.14 1020.8
24 02:56 NW 3 10.00 Fair CLR 57 52 83% 30.13 1020.6
24 01:56 N 3 10.00 Fair CLR 57.9 52 81% 30.13 1020.6
24 00:56 Calm 10.00 Fair CLR 59 52 78% 30.12 1020.2
23 23:56 Vrbl 3 10.00 Fair CLR 60.1 52 75% 30.11 1020.0
23 22:56 NW 3 10.00 Fair CLR 62.1 52 81 62.1 70% 30.1 0.0
23 21:56 NW 7 10.00 Fair CLR 64.9 52 63% 30.1 0.0
23 20:56 NW 8 10.00 Fair CLR 66.9 53.1 61% 30.08 0.0
23 19:56 W 7 10.00 Fair CLR 70 53.1 55% 30.07 0.0
23 18:56 W 13 G 20 10.00 Fair CLR 73.9 55.9 54% 30.06 0.0
23 17:56 NW 14 10.00 Fair CLR 78.1 57.9 50% 79 30.06 0.0
23 16:56 NW 10 10.00 Fair CLR 80.1 55.9 44% 80 30.06 0.0
23 15:56 N 12 10.00 Fair CLR 80.1 51.1 37% 80 30.08 0.0
23 14:56 NW 12 10.00 Fair CLR 78.1 51.1 39% 79 30.1 0.0
23 13:56 NW 12 G 17 10.00 Fair CLR 77 52 42% 78 30.12 0.0
23 11:56 N 8 10.00 Fair CLR 69.1 51.1 53% 30.15 0.0
23 10:56 NW 7 10.00 A Few Clouds FEW030 66.9 51.1 66.9 46.9 57% 30.18 1022.2
23 09:56 Vrbl 5 10.00 Mostly Cloudy BKN022 62.1 50 65% 30.2 1023.0
23 07:56 NW 5 10.00 Overcast OVC020 54 48.9 83% 30.22 1023.6
23 06:56 Calm 10.00 Overcast OVC024 51.1 46.9 86% 30.22 1023.7
23 05:56 NW 6 10.00 A Few Clouds FEW026 46.9 45 93% 45 30.23 1024.0
23 04:56 Calm 10.00 Fair CLR 46.9 45 59 46.9 93% 30.23 1024.0
23 03:56 NW 5 10.00 Fair CLR 48 46 93% 47 30.23 1024.0
23 02:56 Calm 10.00 Fair CLR 50 46.9 89% 30.23 1023.9
23 01:56 Calm 10.00 Fair CLR 52 48 86% 30.23 1023.9
23 00:56 Calm 10.00 Fair CLR 55.9 50 81% 30.22 1023.8
22 23:56 N 3 10.00 Fair CLR 57.9 50 75% 30.22 1023.5
22 22:56 NW 6 10.00 Fair CLR 57.9 50 71.1 57.9 75% 30.21 1023.2
22 21:56 NW 8 10.00 Fair CLR 60.1 48.9 67% 30.19 1022.7
22 20:56 NW 9 10.00 Fair CLR 63 50 63% 30.17 1022.0
22 19:56 NW 13 G 20 10.00 Partly Cloudy SCT047 64.9 50 59% 30.16 1021.7
22 18:56 W 9 10.00 Fair CLR 68 50 53% 30.15 1021.4
22 17:56 W 10 10.00 A Few Clouds FEW046 70 50 49% 30.16 1021.7
22 16:56 W 13 G 20 10.00 Mostly Cloudy BKN046 71.1 51.1 73 66 49% 30.16 1021.6
22 15:56 W 12 G 21 10.00 Mostly Cloudy BKN044 71.1 51.1 49% 30.16 1021.6
22 14:56 W 14 G 17 10.00 Overcast OVC044 71.1 52 51% 30.16 1021.6
22 13:56 W 12 10.00 Overcast OVC040 69.1 52 55% 30.16 1021.5
22 12:56 W 10 G 16 10.00 Overcast OVC038 68 52 57% 30.15 1021.2
Date Time (pdt) Wind (mph) Vis. (mi.) Weather Sky Cond. Air Dwpt Max. Min. Relative Humidity Wind Chill (°F) Heat Index (°F) altimeter (in) sea level (mb) 1 hr 3 hr 6 hr
6 hour
Temperature (ºF) Pressure Precipitation (in)